Regional Weather Roundup
Issued by NWS Little Rock, AR

Home | Current Version | Previous Version | Graphics & Text | Print | Product List | Glossary On
Versions: 1 2 3 4 5 6 7 8 9 10 11 12 13 14 15 16 17 18 19 20 21 22 23 24 25 26 27 28 29 30 31 32 33 34 35 36 37 38 39 40 41 42 43 44 45 46 47 48 49 50
000
ASUS44 KLZK 272005
RWRLZK

WEATHER ROUNDUP FOR ARKANSAS
NATIONAL WEATHER SERVICE LITTLE ROCK AR
300 PM CDT MON JUL 27 2015

NOTE: "FAIR" INDICATES FEW OR NO CLOUDS BELOW 12,000 FEET WITH NO
SIGNIFICANT WEATHER AND/OR OBSTRUCTIONS TO VISIBILITY.

ARZ001-003-010-029-272100-
NORTHWEST ARKANSAS

CITY           SKY/WX    TMP DP  RH WIND       PRES   REMARKS
FAYETTEVILLE   MOSUNNY   90  75  61 S6        29.96F HX 100
FORT SMITH     SUNNY     97  69  40 NE3       29.89  HX 103
HARRISON       PTSUNNY   91  74  57 VRB3      29.97F HX 100
BENTONVILLE    SUNNY     93  72  49 SW6       29.98S HX 100
ROGERS         CLOUDY    91  74  57 SE7       29.97F HX 100
SILOAM SPGS    MOSUNNY   95  72  46 S7        29.95S HX 103
HIGHFILL       MOSUNNY   93  75  55 S7        29.96F HX 104
SPRINGDALE     MOSUNNY   93  73  52 S7G14     29.98F HX 102
$$

ARZ004-005-016-272100-
NORTH CENTRAL ARKANSAS

CITY           SKY/WX    TMP DP  RH WIND       PRES   REMARKS
BATESVILLE     PTSUNNY   93  77  59 E8        29.93F HX 107
FLIPPIN        PTSUNNY   79  68  69 S8G22     29.95R THUNDER
MTN HOME       MOSUNNY   83  73  72 SW9       29.96R HX  89
$$

ARZ040-041-272100-
WEST CENTRAL ARKANSAS

CITY           SKY/WX    TMP DP  RH WIND       PRES   REMARKS
MENA           MOSUNNY  100  70  37 SE5       29.95F HX 107
MOUNT IDA      SUNNY     98  69  38 VRB7      29.92F HX 104
$$

ARZ009-017-025-026-028-272100-
NORTHEAST ARKANSAS

CITY           SKY/WX    TMP DP  RH WIND       PRES   REMARKS
JONESBORO      MOSUNNY   91  76  61 S7        29.93F HX 103
NEWPORT        SUNNY     94  77  57 VRB7      29.95S HX 108
WALNUT RIDGE   SUNNY     93  73  52 S6        29.92F HX 102
BLYTHEVILLE    SUNNY     93  77  59 S8        29.94F HX 107
$$

ARZ022-023-033-042-044-272100-
CENTRAL ARKANSAS

CITY           SKY/WX    TMP DP  RH WIND       PRES   REMARKS
LITTLE ROCK    MOSUNNY   97  74  47 SE8       29.92F HX 108
N LITTLE ROCK  MOSUNNY   97  73  46 S9G15     29.92F HX 107
JACKSONVILLE   SUNNY     99  72  42 S8        29.91F HX 108
SEARCY         MOSUNNY   96  78  56 S9        29.94F HX 112
HOT SPRINGS    SUNNY     97  70  41 VRB5      29.93F HX 103
RUSSELLVILLE   MOSUNNY   96  75  50 VRB3      29.91F HX 108
CLINTON        FAIR      95  77  55 S3        29.94S HX 109
$$

ARZ036-272100-
EAST ARKANSAS

CITY           SKY/WX    TMP DP  RH WIND       PRES   REMARKS
WEST MEMPHIS   MOSUNNY   93  78  61 SW7       29.93F HX 108
$$

ARZ050-053-066-070-073-272100-
SOUTHWEST ARKANSAS

CITY           SKY/WX    TMP DP  RH WIND       PRES   REMARKS
ARKADELPHIA    FAIR     101  73  40 VRB6      29.92F HX 111
CAMDEN         MOSUNNY   99  70  39 SE6       29.92F HX 105
TEXARKANA      SUNNY     98  69  38 E5        29.92F HX 104
EL DORADO      MOSUNNY   97  72  44 S7        29.94F HX 105
DE QUEEN       MOSUNNY   96  73  47 CALM      29.89F HX 105
$$

ARZ056-057-069-272100-
SOUTHEAST ARKANSAS

CITY           SKY/WX    TMP DP  RH WIND       PRES   REMARKS
PINE BLUFF     SUNNY     96  74  48 E5        29.92F HX 107
STUTTGART      SUNNY     95  73  49 SE6       29.94S HX 105
MONTICELLO     SUNNY     98  74  45 SE7       29.93F HX 109

$$




USA.gov is the U.S. government's official web portal to all federal, state and local government web resources and services.